IRIDIUM 33 DEB

Satellite information

Favourite Embed

Satellite Type and Status

DEBRISIN ORBIT

Key statistics

Satellite IRIDIUM 33 DEB at a glance.

Uptime

10317

Days in orbit

Revolutions

≈ 14.0

Per day

Orbit

LEO

Low Earth Orbit

Inclination

86.0

Latest

Satellite identification and parameters

Extended collection of information and parameters for IRIDIUM 33 DEB.

Object identification

Identified? True

Debris? True

Object name: IRIDIUM 33 DEB

International designator: 1997-051W

Object number (NORAD): 33853

Object ID (CCSDS): 33853

Country: UNITED STATES OF AMERICA (US)

Current information (Y/N): Y

RCS size: SMALL

Orbital parameters

Period: 102.927 minutes

Inclination: 86.0002 deg

SMA: 7275.207 km

Apoapsis: 1047.691 km

Periapsis: 746.454 km

RAAN: 350.1415 deg

Eccentricy: 0.020703

Argument of periapsis: 238.1458 deg

Mean anomaly: 148.4368 deg

Mean motion: 13.99054711 rev/day

Mean motion (dot): 0.00004759 rev/day2

B* drag term: 0.0027296 1/REarth

Two-line elements (TLE)

Creation date: Dec. 12, 2025, 7:06 a.m.

Reference frame: TEME

Reference center: EARTH

Epoch: Dec. 11, 2025, 11:41 p.m. UTC

TLE line 0: 0 IRIDIUM 33 DEB

TLE line 1: 1 33853U 97051W 25345.98687942 .00004759 00000-0 27296-2 0 9999

TLE line 2: 2 33853 86.0002 350.1415 0207030 238.1458 148.4368 13.99054711853350

Live tracking on map

Real-time ground track for satellite IRIDIUM 33 DEB.

In-orbit conjunctions

A list of the most updated potential collisions computed for object IRIDIUM 33 DEB.

Target Orbit TCA Probability of collision Miss distance Type
FENGYUN 1C DEB SSO 2025-09-26 09:15:17 0.0001748272 107.0 (m) DEBRIS
DMSP 5D-2 F12 DEB SSO 2025-06-22 16:54:57 0.00106711 48.0 (m) DEBRIS
COSMOS 990 LEO 2025-04-10 22:51:34 0.0001060139 152.0 (m) PAYLOAD
PORCUPINE 1 LEO 2024-11-25 05:00:14 0.0001059108 646.0 (m) PAYLOAD
COSMOS 1275 DEB LEO 2024-11-14 02:28:57 0.0001572974 688.0 (m) DEBRIS

Associated space launch

Iridium provides global mobile telecommunications services using a constellation of 66 low earth orbit satellites in a 86.4° inclined orbit. Although 77 satellites were originally envisioned for the system and spawned the name based on the 77th element in the periodic table, the system has been scaled back. Motorola's Satellite Communications Group designed and manufactured the Iridium satellites with Lockheed Martin providing the LM-700A spacecraft buses.

IRIDIUM 33 DEB was lifted into orbit during the mission ‘Proton-K/17S40 | Iridium 27 to 33’, on board a Proton-K/17S40 space rocket.

The launch took place on Sept. 14, 1997, 1:36 a.m. from 81/23 (81L).

For more information about the launch, click the button.

Launch to space Proton-K/17S40 | Iridium 27 to 33
Proton-K/17S40 | Iridium 27 to 33

Agency: N/A

Status: Launch Successful

Launch date: Sept. 14, 1997, 1:36 a.m. UTC

Rocket: Proton-K/17S40

Launch pad: 81/23 (81L)

Location: Baikonur Cosmodrome, Republic of Kazakhstan

...

Latest news about this satellite

There are no fresh news available about this satellite. Check back as we update our databases every day.


Newsletter sign-up

Weekly statistics, charts and insights to help you stay on top of the space industry.